Time,TemperatureF,DewpointF,PressureIn,WindDirection,WindDirectionDegrees,WindSpeedMPH,WindSpeedGustMPH,Humidity,HourlyPrecipIn,Conditions,Clouds,dailyrainin,SolarRadiationWatts/m^2,SoftwareType,DateUTC
2013-03-22 00:12:00,78.5,72.0,29.93,SSE,159,2.0,4.0,79,0.00,,,0.00,0,weatherlink.com 1.10,2013-03-22 04:12:00,
2013-03-22 00:27:00,78.4,71.0,29.93,SSE,159,0.0,2.0,79,0.00,,,0.00,0,weatherlink.com 1.10,2013-03-22 04:27:00,
2013-03-22 00:42:00,78.2,72.0,29.93,SSE,159,0.0,2.0,80,0.00,,,0.00,0,weatherlink.com 1.10,2013-03-22 04:42:00,
2013-03-22 00:57:00,78.0,71.0,29.93,SSE,159,0.0,2.0,80,0.00,,,0.00,0,weatherlink.com 1.10,2013-03-22 04:57:00,
2013-03-22 01:12:00,77.8,72.0,29.92,SSE,159,0.0,2.0,81,0.00,,,0.00,0,weatherlink.com 1.10,2013-03-22 05:12:00,
2013-03-22 01:27:00,77.7,71.0,29.92,SSE,159,0.0,2.0,81,0.00,,,0.00,0,weatherlink.com 1.10,2013-03-22 05:27:00,
2013-03-22 01:42:00,77.5,71.0,29.92,SSE,159,0.0,1.0,81,0.00,,,0.00,0,weatherlink.com 1.10,2013-03-22 05:42:00,
2013-03-22 01:57:00,77.3,71.0,29.91,SSE,159,0.0,1.0,82,0.00,,,0.00,0,weatherlink.com 1.10,2013-03-22 05:57:00,
2013-03-22 02:12:00,77.2,72.0,29.91,SSE,159,0.0,2.0,83,0.00,,,0.00,0,weatherlink.com 1.10,2013-03-22 06:12:00,
2013-03-22 02:27:00,77.1,72.0,29.91,SSE,159,0.0,2.0,83,0.00,,,0.00,0,weatherlink.com 1.10,2013-03-22 06:27:00,
2013-03-22 02:42:00,77.1,72.0,29.90,SSE,159,2.0,2.0,84,0.00,,,0.00,0,weatherlink.com 1.10,2013-03-22 06:42:00,
2013-03-22 02:57:00,77.0,72.0,29.90,SSE,159,0.0,3.0,84,0.00,,,0.00,0,weatherlink.com 1.10,2013-03-22 06:57:00,
2013-03-22 03:12:00,76.8,72.0,29.90,SSE,159,0.0,2.0,85,0.00,,,0.00,0,weatherlink.com 1.10,2013-03-22 07:12:00,
2013-03-22 03:27:00,76.6,72.0,29.90,SSE,159,1.0,3.0,85,0.00,,,0.00,0,weatherlink.com 1.10,2013-03-22 07:27:00,
2013-03-22 03:42:00,76.4,72.0,29.90,SSE,159,0.0,3.0,86,0.00,,,0.00,0,weatherlink.com 1.10,2013-03-22 07:42:00,
2013-03-22 03:57:00,76.5,72.0,29.90,SSE,159,1.0,3.0,86,0.00,,,0.00,0,weatherlink.com 1.10,2013-03-22 07:57:00,
2013-03-22 04:12:00,76.4,72.0,29.91,SSE,159,0.0,3.0,86,0.00,,,0.00,0,weatherlink.com 1.10,2013-03-22 08:12:00,
2013-03-22 04:27:00,76.2,72.0,29.91,SSE,159,1.0,2.0,87,0.00,,,0.00,0,weatherlink.com 1.10,2013-03-22 08:27:00,
2013-03-22 04:42:00,76.2,72.0,29.91,SSE,159,1.0,3.0,87,0.00,,,0.00,0,weatherlink.com 1.10,2013-03-22 08:42:00,
2013-03-22 04:57:00,76.1,72.0,29.91,SSE,159,0.0,2.0,87,0.00,,,0.00,0,weatherlink.com 1.10,2013-03-22 08:57:00,
2013-03-22 05:12:00,76.0,72.0,29.92,SSE,159,0.0,2.0,87,0.00,,,0.00,0,weatherlink.com 1.10,2013-03-22 09:12:00,
2013-03-22 05:27:00,76.1,72.0,29.93,SSE,159,0.0,3.0,87,0.00,,,0.00,0,weatherlink.com 1.10,2013-03-22 09:27:00,
2013-03-22 05:42:00,76.2,72.0,29.93,SSE,159,0.0,2.0,87,0.00,,,0.00,0,weatherlink.com 1.10,2013-03-22 09:42:00,
2013-03-22 05:57:00,76.2,72.0,29.94,SSE,159,0.0,1.0,87,0.00,,,0.00,0,weatherlink.com 1.10,2013-03-22 09:57:00,
2013-03-22 06:12:00,76.2,72.0,29.95,SSE,159,0.0,1.0,87,0.00,,,0.00,0,weatherlink.com 1.10,2013-03-22 10:12:00,
2013-03-22 06:27:00,76.3,72.0,29.95,SSE,159,0.0,1.0,87,0.00,,,0.00,0,weatherlink.com 1.10,2013-03-22 10:27:00,
2013-03-22 06:42:00,76.4,72.0,29.95,SSE,159,0.0,1.0,87,0.00,,,0.00,23,weatherlink.com 1.10,2013-03-22 10:42:00,
2013-03-22 06:57:00,76.5,72.0,29.96,SSE,159,0.0,3.0,86,0.00,,,0.00,49,weatherlink.com 1.10,2013-03-22 10:57:00,
2013-03-22 07:15:00,76.9,73.0,29.96,SSE,159,1.0,4.0,86,0.00,,,0.00,107,weatherlink.com 1.10,2013-03-22 11:15:00,
2013-03-22 07:27:00,77.7,73.0,29.96,SE,136,5.0,7.0,84,0.00,,,0.00,163,weatherlink.com 1.10,2013-03-22 11:27:00,
2013-03-22 07:43:00,78.8,73.0,29.97,SE,133,2.0,7.0,81,0.00,,,0.00,239,weatherlink.com 1.10,2013-03-22 11:43:00,
2013-03-22 07:58:00,80.1,73.0,29.98,ESE,122,3.0,7.0,78,0.00,,,0.00,325,weatherlink.com 1.10,2013-03-22 11:58:00,
2013-03-22 08:13:00,81.0,72.0,29.99,ESE,111,4.0,7.0,75,0.00,,,0.00,397,weatherlink.com 1.10,2013-03-22 12:13:00,
2013-03-22 08:28:00,82.2,72.0,29.99,East,86,3.0,9.0,72,0.00,,,0.00,411,weatherlink.com 1.10,2013-03-22 12:28:00,
2013-03-22 08:43:00,83.1,74.0,30.00,East,82,6.0,7.0,73,0.00,,,0.00,469,weatherlink.com 1.10,2013-03-22 12:43:00,
2013-03-22 08:58:00,83.3,73.0,30.00,ENE,65,3.0,8.0,72,0.00,,,0.00,545,weatherlink.com 1.10,2013-03-22 12:58:00,
2013-03-22 09:13:00,84.2,74.0,30.00,ENE,70,4.0,8.0,72,0.00,,,0.00,591,weatherlink.com 1.10,2013-03-22 13:13:00,
2013-03-22 09:28:00,83.9,74.0,30.00,ENE,71,7.0,9.0,73,0.00,,,0.00,696,weatherlink.com 1.10,2013-03-22 13:28:00,
2013-03-22 09:43:00,84.1,75.0,30.00,ENE,70,3.0,10.0,75,0.00,,,0.00,179,weatherlink.com 1.10,2013-03-22 13:43:00,
2013-03-22 09:58:00,83.7,76.0,30.00,East,84,9.0,10.0,77,0.00,,,0.00,230,weatherlink.com 1.10,2013-03-22 13:58:00,
2013-03-22 10:13:00,83.9,76.0,30.00,ENE,74,9.0,12.0,77,0.00,,,0.00,283,weatherlink.com 1.10,2013-03-22 14:13:00,
2013-03-22 10:28:00,83.1,76.0,30.00,ENE,58,4.0,10.0,78,0.00,,,0.00,299,weatherlink.com 1.10,2013-03-22 14:28:00,
2013-03-22 10:43:00,83.6,76.0,30.00,NE,47,5.0,14.0,78,0.00,,,0.00,178,weatherlink.com 1.10,2013-03-22 14:43:00,
2013-03-22 10:58:00,84.1,76.0,30.00,NE,55,6.0,12.0,77,0.00,,,0.00,925,weatherlink.com 1.10,2013-03-22 14:58:00,
2013-03-22 11:13:00,85.9,77.0,30.00,ENE,70,8.0,14.0,74,0.00,,,0.00,911,weatherlink.com 1.10,2013-03-22 15:13:00,
2013-03-22 11:28:00,85.5,77.0,30.00,ENE,69,9.0,18.0,75,0.00,,,0.00,564,weatherlink.com 1.10,2013-03-22 15:28:00,
2013-03-22 11:43:00,86.1,77.0,29.99,NE,54,8.0,18.0,73,0.00,,,0.00,132,weatherlink.com 1.10,2013-03-22 15:43:00,
2013-03-22 11:58:00,85.6,76.0,29.98,ENE,69,10.0,13.0,74,0.00,,,0.00,698,weatherlink.com 1.10,2013-03-22 15:58:00,
2013-03-22 12:13:00,85.6,76.0,29.98,ENE,66,9.0,18.0,74,0.00,,,0.00,970,weatherlink.com 1.10,2013-03-22 16:13:00,
2013-03-22 12:28:00,86.0,76.0,29.97,ENE,75,3.0,13.0,73,0.00,,,0.00,977,weatherlink.com 1.10,2013-03-22 16:28:00,
2013-03-22 12:58:00,86.7,77.0,29.95,East,94,14.0,15.0,72,0.00,,,0.00,1060,weatherlink.com 1.10,2013-03-22 16:58:00,
2013-03-22 13:13:00,88.1,78.0,29.95,ENE,60,4.0,14.0,71,0.00,,,0.00,1072,weatherlink.com 1.10,2013-03-22 17:13:00,
2013-03-22 13:28:00,88.1,78.0,29.94,WNW,294,3.0,15.0,71,0.00,,,0.00,1023,weatherlink.com 1.10,2013-03-22 17:28:00,
2013-03-22 13:43:00,86.3,77.0,29.94,WSW,247,2.0,14.0,73,0.00,,,0.00,244,weatherlink.com 1.10,2013-03-22 17:43:00,
2013-03-22 13:58:00,86.8,78.0,29.93,ENE,71,7.0,18.0,74,0.00,,,0.00,1051,weatherlink.com 1.10,2013-03-22 17:58:00,
2013-03-22 14:13:00,86.6,77.0,29.93,ENE,75,4.0,13.0,73,0.00,,,0.00,153,weatherlink.com 1.10,2013-03-22 18:13:00,
2013-03-22 14:28:00,84.3,76.0,29.93,NNE,30,3.0,17.0,77,0.00,,,0.00,207,weatherlink.com 1.10,2013-03-22 18:28:00,
2013-03-22 14:43:00,84.5,77.0,29.92,East,90,9.0,15.0,77,0.00,,,0.00,861,weatherlink.com 1.10,2013-03-22 18:43:00,
2013-03-22 14:58:00,84.7,77.0,29.92,ENE,76,9.0,16.0,77,0.00,,,0.00,257,weatherlink.com 1.10,2013-03-22 18:58:00,
2013-03-22 15:13:00,83.5,76.0,29.91,East,88,10.0,23.0,78,0.00,,,0.00,160,weatherlink.com 1.10,2013-03-22 19:13:00,
2013-03-22 15:28:00,83.0,76.0,29.91,NE,53,4.0,17.0,80,0.00,,,0.00,679,weatherlink.com 1.10,2013-03-22 19:28:00,
2013-03-22 15:43:00,83.5,76.0,29.91,ENE,69,11.0,17.0,78,0.00,,,0.00,617,weatherlink.com 1.10,2013-03-22 19:43:00,
2013-03-22 15:59:00,84.2,76.0,29.91,ENE,72,12.0,16.0,77,0.00,,,0.00,566,weatherlink.com 1.10,2013-03-22 19:59:00,
2013-03-22 16:14:00,83.4,76.0,29.91,NNE,32,11.0,17.0,78,0.00,,,0.00,148,weatherlink.com 1.10,2013-03-22 20:14:00,
2013-03-22 16:29:00,82.7,76.0,29.91,ENE,57,11.0,16.0,80,0.00,,,0.00,100,weatherlink.com 1.10,2013-03-22 20:29:00,
2013-03-22 16:44:00,82.5,76.0,29.91,ENE,62,5.0,12.0,80,0.00,,,0.00,172,weatherlink.com 1.10,2013-03-22 20:44:00,
2013-03-22 16:59:00,82.8,76.0,29.92,ESE,107,5.0,13.0,80,0.00,,,0.00,153,weatherlink.com 1.10,2013-03-22 20:59:00,
2013-03-22 17:14:00,82.8,76.0,29.92,ENE,62,3.0,16.0,80,0.00,,,0.00,74,weatherlink.com 1.10,2013-03-22 21:14:00,
2013-03-22 17:29:00,83.3,74.0,29.93,SSW,205,2.0,5.0,73,0.00,,,0.00,54,weatherlink.com 1.10,2013-03-22 21:29:00,
2013-03-22 17:44:00,82.9,72.0,29.93,South,184,1.0,9.0,70,0.00,,,0.00,26,weatherlink.com 1.10,2013-03-22 21:44:00,
2013-03-22 17:59:00,82.7,72.0,29.94,South,175,1.0,6.0,69,0.00,,,0.00,18,weatherlink.com 1.10,2013-03-22 21:59:00,
2013-03-22 18:14:00,82.5,70.0,29.95,South,191,2.0,6.0,66,0.00,,,0.00,14,weatherlink.com 1.10,2013-03-22 22:14:00,
2013-03-22 18:29:00,82.8,74.0,29.95,SSE,161,1.0,5.0,74,0.00,,,0.00,7,weatherlink.com 1.10,2013-03-22 22:29:00,
2013-03-22 18:45:00,82.5,75.0,29.96,South,188,2.0,5.0,79,0.00,,,0.00,0,weatherlink.com 1.10,2013-03-22 22:45:00,
2013-03-22 18:59:00,81.8,76.0,29.96,South,175,1.0,4.0,82,0.00,,,0.00,0,weatherlink.com 1.10,2013-03-22 22:59:00,
2013-03-22 19:14:00,81.1,76.0,29.96,SSW,194,0.0,4.0,83,0.00,,,0.00,0,weatherlink.com 1.10,2013-03-22 23:14:00,
2013-03-22 19:29:00,81.1,76.0,29.98,SSW,194,0.0,4.0,84,0.00,,,0.00,0,weatherlink.com 1.10,2013-03-22 23:29:00,
2013-03-22 19:44:00,80.8,76.0,29.98,South,186,3.0,4.0,84,0.00,,,0.00,0,weatherlink.com 1.10,2013-03-22 23:44:00,
2013-03-22 19:59:00,80.3,76.0,29.99,South,175,5.0,8.0,85,0.00,,,0.00,0,weatherlink.com 1.10,2013-03-22 23:59:00,
2013-03-22 20:14:00,77.5,72.0,30.01,SW,216,5.0,7.0,83,0.00,,,0.00,0,weatherlink.com 1.10,2013-03-23 00:14:00,
2013-03-22 20:29:00,76.6,72.0,30.02,West,277,3.0,8.0,84,0.01,,,0.01,0,weatherlink.com 1.10,2013-03-23 00:29:00,
2013-03-22 20:44:00,76.7,73.0,30.02,West,281,1.0,8.0,87,0.03,,,0.03,0,weatherlink.com 1.10,2013-03-23 00:44:00,
2013-03-22 20:59:00,76.1,73.0,30.02,West,275,0.0,5.0,89,0.05,,,0.05,0,weatherlink.com 1.10,2013-03-23 00:59:00,
2013-03-22 21:14:00,75.9,73.0,30.02,SW,221,1.0,4.0,90,0.05,,,0.05,0,weatherlink.com 1.10,2013-03-23 01:14:00,
2013-03-22 21:29:00,75.7,73.0,30.02,West,281,0.0,5.0,90,0.04,,,0.05,0,weatherlink.com 1.10,2013-03-23 01:29:00,
2013-03-22 21:44:00,75.6,73.0,30.03,West,281,1.0,2.0,90,0.02,,,0.05,0,weatherlink.com 1.10,2013-03-23 01:44:00,
2013-03-22 21:59:00,75.7,73.0,30.03,West,281,2.0,2.0,90,0.00,,,0.05,0,weatherlink.com 1.10,2013-03-23 01:59:00,
2013-03-22 22:14:00,75.5,73.0,30.03,West,281,0.0,3.0,90,0.00,,,0.05,0,weatherlink.com 1.10,2013-03-23 02:14:00,
2013-03-22 22:30:00,75.5,73.0,30.02,West,281,1.0,3.0,90,0.00,,,0.05,0,weatherlink.com 1.10,2013-03-23 02:30:00,
2013-03-22 22:44:00,75.7,73.0,30.02,WSW,248,0.0,2.0,91,0.00,,,0.05,0,weatherlink.com 1.10,2013-03-23 02:44:00,
2013-03-22 22:59:00,76.0,73.0,30.02,WSW,248,1.0,3.0,91,0.00,,,0.05,0,weatherlink.com 1.10,2013-03-23 02:59:00,
2013-03-22 23:14:00,75.8,73.0,30.02,WSW,248,0.0,2.0,91,0.00,,,0.05,0,weatherlink.com 1.10,2013-03-23 03:14:00,
2013-03-22 23:29:00,76.0,73.0,30.02,WSW,248,0.0,3.0,91,0.00,,,0.05,0,weatherlink.com 1.10,2013-03-23 03:29:00,
2013-03-22 23:44:00,76.0,73.0,30.01,WSW,248,0.0,2.0,91,0.00,,,0.05,0,weatherlink.com 1.10,2013-03-23 03:44:00,
2013-03-22 23:59:00,76.0,73.0,30.01,WSW,248,0.0,2.0,91,0.00,,,0.05,0,weatherlink.com 1.10,2013-03-23 03:59:00,